Location: Newark
(54.6833°N, 25.2833°E)
Time: 11:59:19
(UTC+00:00)

Explorer 7 - Visible Passes

Search period start: 26 September 2020 00:00
Search period end: 06 October 2020 00:00
Orbit: 484 x 679 km, 50.3° (Epoch: 26 September)

Date Brightness Start Highest point End Pass type
(mag) Time Alt. Az. Time Alt. Az. Time Alt. Az.
26 Sep 9.0 00:49:02 23° SE 00:49:02 23° SE 00:51:44 10° E visible
26 Sep 7.7 02:25:21 26° SW 02:27:42 48° S 02:32:26 10° E visible
27 Sep 8.7 00:53:37 27° ESE 00:53:37 27° ESE 00:56:34 10° E visible
27 Sep 7.6 02:29:55 26° WSW 02:32:21 51° S 02:37:08 10° E visible
28 Sep 8.5 00:58:12 31° SE 00:58:12 31° SE 01:01:21 10° E visible
28 Sep 7.6 02:34:30 26° WSW 02:37:00 52° S 02:41:47 10° ESE visible
29 Sep 8.3 01:02:47 35° SE 01:02:47 35° SE 01:06:03 10° E visible
29 Sep 7.6 02:39:05 25° WSW 02:41:39 50° S 02:46:24 10° ESE visible
30 Sep 8.2 01:07:24 37° SE 01:07:24 37° SE 01:10:46 10° E visible
30 Sep 7.7 02:43:42 24° WSW 02:46:18 46° SSW 02:50:59 10° ESE visible
01 Oct 8.1 01:12:03 38° SE 01:12:03 38° SE 01:15:26 10° ESE visible
01 Oct 7.8 02:48:22 23° WSW 02:50:54 40° SSW 02:55:30 10° SE visible
02 Oct 8.2 01:16:47 38° SE 01:16:47 38° SE 01:20:05 10° ESE visible
02 Oct 8.0 02:53:06 21° WSW 02:55:30 34° SSW 02:59:55 10° SE visible
03 Oct 8.3 01:21:34 35° SE 01:21:34 35° SE 01:24:41 10° ESE visible
03 Oct 8.3 02:57:53 20° WSW 03:00:02 28° SSW 03:04:12 10° SSE visible
04 Oct 8.5 01:26:27 30° SE 01:26:27 30° SE 01:29:15 10° ESE visible
04 Oct 8.6 03:02:47 18° WSW 03:04:33 22° SSW 03:08:17 10° SSE visible
05 Oct 8.8 01:31:27 24° SSE 01:31:27 24° SSE 01:33:44 10° SE visible
05 Oct 8.8 03:07:48 15° SW 03:08:59 17° SW 03:12:04 10° S visible
